Location: Leedale
(52.5833°N, 114.4833°W)
Time: 08:08:36
(UTC+00:00)

BlueWalker 3 - Pass Details

Date: 11 August 2024
Orbit: 476 x 487 km, 53.2° (Epoch: 08 September)

Event Time Altitude Azimuth Distance (km) Brightness Sun altitude
Exits shadow 09:30:17 33° 149° (SSE) 848 2.8 -18.5°
Maximum altitude 09:30:19 33° 147° (SSE) 847 2.8 -18.5°
Drops below altitude 10° 09:33:47 10° 82° (E) 1,691 5.1 -18.3°
Sets 09:36:06 0° 73° (ENE) 2,577 6.3 -18.1°
